Time,TemperatureF,DewpointF,PressureIn,WindDirection,WindDirectionDegrees,WindSpeedMPH,WindSpeedGustMPH,Humidity,HourlyPrecipIn,Conditions,Clouds,dailyrainin,SoftwareType,DateUTC
2013-06-11 02:05:00,55.0,54.2,29.56,NE,45,2.0,0.0,97,0.00,,,0.00,Weather View 32 v70,2013-06-11 06:05:00,
2013-06-11 02:42:00,55.0,54.2,29.54,WSW,247,4.0,4.0,97,0.00,,,0.00,Weather View 32 v70,2013-06-11 06:42:00,
2013-06-11 07:32:00,53.0,52.2,29.40,SW,225,0.0,0.0,97,0.00,,,0.00,Weather View 32 v70,2013-06-11 11:32:00,
2013-06-11 07:37:00,53.0,52.2,29.40,NW,315,1.0,9.0,97,0.00,,,0.00,Weather View 32 v70,2013-06-11 11:37:00,
2013-06-11 07:42:00,53.0,52.2,29.40,NE,45,0.0,9.0,97,0.00,,,0.00,Weather View 32 v70,2013-06-11 11:42:00,
2013-06-11 07:47:00,53.0,52.2,29.40,South,180,1.0,9.0,97,0.00,,,0.00,Weather View 32 v70,2013-06-11 11:47:00,
2013-06-11 07:52:00,53.0,52.2,29.40,NE,45,0.0,9.0,97,0.00,,,0.00,Weather View 32 v70,2013-06-11 11:52:00,
2013-06-11 07:57:00,53.0,52.2,29.40,South,180,0.0,9.0,97,0.00,,,0.00,Weather View 32 v70,2013-06-11 11:57:00,
2013-06-11 08:02:00,53.0,52.2,29.39,West,270,2.0,9.0,97,0.00,,,0.00,Weather View 32 v70,2013-06-11 12:02:00,
2013-06-11 08:07:00,53.0,52.2,29.39,East,90,0.0,9.0,97,0.00,,,0.00,Weather View 32 v70,2013-06-11 12:07:00,
2013-06-11 08:12:00,53.0,52.2,29.39,South,180,0.0,9.0,97,0.00,,,0.00,Weather View 32 v70,2013-06-11 12:12:00,
2013-06-11 08:17:00,53.0,52.2,29.39,South,180,0.0,9.0,97,0.00,,,0.00,Weather View 32 v70,2013-06-11 12:17:00,
2013-06-11 08:22:00,53.0,52.2,29.38,North,360,3.0,9.0,97,0.00,,,0.00,Weather View 32 v70,2013-06-11 12:22:00,
2013-06-11 08:27:00,53.0,52.2,29.38,NW,315,1.0,9.0,97,0.00,,,0.00,Weather View 32 v70,2013-06-11 12:27:00,
2013-06-11 08:32:00,53.0,52.2,29.38,ENE,67,0.0,9.0,97,0.00,,,0.00,Weather View 32 v70,2013-06-11 12:32:00,
2013-06-11 08:37:00,53.0,52.2,29.38,South,180,1.0,9.0,97,0.00,,,0.00,Weather View 32 v70,2013-06-11 12:37:00,
2013-06-11 08:42:00,54.0,53.2,29.37,NE,45,0.0,9.0,97,0.00,,,0.00,Weather View 32 v70,2013-06-11 12:42:00,
2013-06-11 08:47:00,54.0,53.2,29.37,East,90,0.0,9.0,97,0.00,,,0.00,Weather View 32 v70,2013-06-11 12:47:00,
2013-06-11 08:52:00,54.0,53.2,29.37,North,360,0.0,9.0,97,0.00,,,0.00,Weather View 32 v70,2013-06-11 12:52:00,
2013-06-11 08:57:00,53.0,52.2,29.37,NE,45,0.0,9.0,97,0.00,,,0.00,Weather View 32 v70,2013-06-11 12:57:00,
2013-06-11 09:02:00,54.0,53.2,29.36,NE,45,0.0,9.0,97,0.00,,,0.00,Weather View 32 v70,2013-06-11 13:02:00,
2013-06-11 09:07:00,54.0,53.2,29.36,NE,45,0.0,9.0,97,0.00,,,0.00,Weather View 32 v70,2013-06-11 13:07:00,
2013-06-11 09:12:00,54.0,53.2,29.36,North,360,2.0,9.0,97,0.00,,,0.00,Weather View 32 v70,2013-06-11 13:12:00,
2013-06-11 09:17:00,54.0,53.2,29.36,North,360,0.0,9.0,97,0.00,,,0.00,Weather View 32 v70,2013-06-11 13:17:00,
2013-06-11 09:22:00,54.0,53.2,29.35,South,180,0.0,9.0,97,0.00,,,0.00,Weather View 32 v70,2013-06-11 13:22:00,
2013-06-11 09:27:00,54.0,53.2,29.35,East,90,0.0,9.0,97,0.00,,,0.00,Weather View 32 v70,2013-06-11 13:27:00,
2013-06-11 09:32:00,54.0,53.2,29.35,NW,315,0.0,9.0,97,0.00,,,0.00,Weather View 32 v70,2013-06-11 13:32:00,
2013-06-11 09:37:00,54.0,53.2,29.35,South,180,0.0,7.0,97,0.00,,,0.00,Weather View 32 v70,2013-06-11 13:37:00,
2013-06-11 09:42:00,54.0,53.2,29.35,NE,45,0.0,7.0,97,0.00,,,0.00,Weather View 32 v70,2013-06-11 13:42:00,
2013-06-11 09:47:00,54.0,53.2,29.35,ESE,112,0.0,7.0,97,0.00,,,0.00,Weather View 32 v70,2013-06-11 13:47:00,
2013-06-11 09:52:00,55.0,54.2,29.34,North,360,0.0,7.0,97,0.00,,,0.00,Weather View 32 v70,2013-06-11 13:52:00,
2013-06-11 09:57:00,55.0,54.2,29.34,North,360,0.0,7.0,97,0.00,,,0.00,Weather View 32 v70,2013-06-11 13:57:00,
2013-06-11 10:02:00,55.0,54.2,29.34,NE,45,1.0,7.0,97,0.00,,,0.00,Weather View 32 v70,2013-06-11 14:02:00,
2013-06-11 10:07:00,55.0,54.2,29.34,SE,135,0.0,7.0,97,0.00,,,0.00,Weather View 32 v70,2013-06-11 14:07:00,
2013-06-11 10:12:00,55.0,54.2,29.35,North,360,0.0,7.0,97,0.00,,,0.00,Weather View 32 v70,2013-06-11 14:12:00,
2013-06-11 10:17:00,55.0,54.2,29.35,North,360,1.0,7.0,97,0.00,,,0.00,Weather View 32 v70,2013-06-11 14:17:00,
2013-06-11 10:22:00,56.0,55.2,29.33,North,360,0.0,7.0,97,0.00,,,0.00,Weather View 32 v70,2013-06-11 14:22:00,
2013-06-11 10:27:00,55.0,54.2,29.33,North,360,0.0,5.0,97,0.00,,,0.00,Weather View 32 v70,2013-06-11 14:27:00,
2013-06-11 10:32:00,56.0,55.2,29.33,East,90,0.0,4.0,97,0.00,,,0.00,Weather View 32 v70,2013-06-11 14:32:00,
2013-06-11 10:37:00,56.0,55.2,29.33,NE,45,0.0,4.0,97,0.00,,,0.00,Weather View 32 v70,2013-06-11 14:37:00,
2013-06-11 10:42:00,56.0,55.2,29.33,SSW,202,0.0,4.0,97,0.00,,,0.00,Weather View 32 v70,2013-06-11 14:42:00,
2013-06-11 10:47:00,56.0,55.2,29.33,East,90,0.0,4.0,97,0.00,,,0.00,Weather View 32 v70,2013-06-11 14:47:00,
2013-06-11 10:52:00,56.0,55.2,29.33,NW,315,2.0,4.0,97,0.00,,,0.00,Weather View 32 v70,2013-06-11 14:52:00,
2013-06-11 10:57:00,55.0,54.2,29.33,SE,135,0.0,5.0,97,0.00,,,0.00,Weather View 32 v70,2013-06-11 14:57:00,
2013-06-11 11:02:00,56.0,55.2,29.33,East,90,0.0,5.0,97,0.00,,,0.00,Weather View 32 v70,2013-06-11 15:02:00,
2013-06-11 11:07:00,56.0,55.2,29.33,ENE,67,0.0,5.0,97,0.00,,,0.00,Weather View 32 v70,2013-06-11 15:07:00,
2013-06-11 11:12:00,56.0,55.2,29.33,SE,135,0.0,5.0,97,0.00,,,0.00,Weather View 32 v70,2013-06-11 15:12:00,
2013-06-11 11:17:00,56.0,55.2,29.33,East,90,0.0,5.0,97,0.00,,,0.00,Weather View 32 v70,2013-06-11 15:17:00,
2013-06-11 11:22:00,56.0,55.2,29.33,ESE,112,0.0,5.0,97,0.00,,,0.00,Weather View 32 v70,2013-06-11 15:22:00,
2013-06-11 11:27:00,56.0,55.2,29.33,East,90,1.0,5.0,97,0.00,,,0.00,Weather View 32 v70,2013-06-11 15:27:00,
2013-06-11 11:32:00,56.0,55.2,29.33,North,360,1.0,5.0,97,0.00,,,0.00,Weather View 32 v70,2013-06-11 15:32:00,
2013-06-11 11:37:00,56.0,55.2,29.33,NE,45,0.0,5.0,97,0.00,,,0.00,Weather View 32 v70,2013-06-11 15:37:00,
2013-06-11 11:42:00,56.0,55.2,29.33,NE,45,0.0,5.0,97,0.00,,,0.00,Weather View 32 v70,2013-06-11 15:42:00,
2013-06-11 11:47:00,56.0,55.2,29.33,NE,45,0.0,5.0,97,0.00,,,0.00,Weather View 32 v70,2013-06-11 15:47:00,
2013-06-11 11:52:00,56.0,55.2,29.33,NE,45,0.0,5.0,97,0.00,,,0.00,Weather View 32 v70,2013-06-11 15:52:00,
2013-06-11 11:57:00,56.0,55.2,29.33,East,90,0.0,5.0,97,0.00,,,0.00,Weather View 32 v70,2013-06-11 15:57:00,
2013-06-11 12:02:00,56.0,55.2,29.33,NE,45,1.0,5.0,97,0.00,,,0.00,Weather View 32 v70,2013-06-11 16:02:00,
2013-06-11 12:07:00,56.0,55.2,29.33,NE,45,0.0,5.0,97,0.00,,,0.00,Weather View 32 v70,2013-06-11 16:07:00,
2013-06-11 12:12:00,57.0,56.4,29.32,SE,135,0.0,5.0,98,0.00,,,0.00,Weather View 32 v70,2013-06-11 16:12:00,
2013-06-11 12:17:00,56.0,55.2,29.32,SE,135,0.0,5.0,97,0.00,,,0.00,Weather View 32 v70,2013-06-11 16:17:00,
2013-06-11 12:22:00,56.0,55.2,29.33,South,180,2.0,5.0,97,0.00,,,0.00,Weather View 32 v70,2013-06-11 16:22:00,
2013-06-11 12:27:00,56.0,55.2,29.33,South,180,0.0,5.0,97,0.00,,,0.00,Weather View 32 v70,2013-06-11 16:27:00,
2013-06-11 12:32:00,57.0,56.4,29.32,East,90,0.0,5.0,98,0.00,,,0.00,Weather View 32 v70,2013-06-11 16:32:00,
2013-06-11 12:37:00,57.0,56.4,29.32,East,90,0.0,4.0,98,0.00,,,0.00,Weather View 32 v70,2013-06-11 16:37:00,
2013-06-11 12:42:00,57.0,56.4,29.32,East,90,0.0,4.0,98,0.00,,,0.00,Weather View 32 v70,2013-06-11 16:42:00,
2013-06-11 12:47:00,57.0,56.4,29.32,East,90,0.0,4.0,98,0.00,,,0.00,Weather View 32 v70,2013-06-11 16:47:00,
2013-06-11 12:52:00,57.0,56.4,29.32,SE,135,0.0,4.0,98,0.00,,,0.00,Weather View 32 v70,2013-06-11 16:52:00,
2013-06-11 12:57:00,57.0,56.4,29.32,SE,135,0.0,4.0,98,0.00,,,0.00,Weather View 32 v70,2013-06-11 16:57:00,
2013-06-11 13:02:00,58.0,57.4,29.31,ESE,112,0.0,4.0,98,0.00,,,0.00,Weather View 32 v70,2013-06-11 17:02:00,
2013-06-11 13:07:00,57.0,56.4,29.31,SE,135,0.0,4.0,98,0.00,,,0.00,Weather View 32 v70,2013-06-11 17:07:00,
2013-06-11 13:12:00,58.0,57.4,29.31,SW,225,0.0,4.0,98,0.00,,,0.00,Weather View 32 v70,2013-06-11 17:12:00,
2013-06-11 13:17:00,58.0,57.4,29.31,SW,225,0.0,4.0,98,0.00,,,0.00,Weather View 32 v70,2013-06-11 17:17:00,
2013-06-11 13:22:00,58.0,57.4,29.31,SW,225,0.0,4.0,98,0.00,,,0.00,Weather View 32 v70,2013-06-11 17:22:00,
2013-06-11 13:27:00,58.0,57.4,29.31,SW,225,0.0,4.0,98,0.00,,,0.00,Weather View 32 v70,2013-06-11 17:27:00,
2013-06-11 13:32:00,58.0,57.4,29.31,SW,225,2.0,4.0,98,0.00,,,0.00,Weather View 32 v70,2013-06-11 17:32:00,
2013-06-11 13:37:00,58.0,57.4,29.31,SW,225,0.0,4.0,98,0.00,,,0.00,Weather View 32 v70,2013-06-11 17:37:00,
2013-06-11 13:42:00,58.0,57.4,29.31,SSW,202,0.0,4.0,98,0.00,,,0.00,Weather View 32 v70,2013-06-11 17:42:00,
2013-06-11 13:47:00,58.0,57.4,29.31,East,90,0.0,4.0,98,0.00,,,0.00,Weather View 32 v70,2013-06-11 17:47:00,
2013-06-11 13:52:00,59.0,58.4,29.31,East,90,0.0,4.0,98,0.00,,,0.00,Weather View 32 v70,2013-06-11 17:52:00,
2013-06-11 13:57:00,58.0,57.4,29.31,NE,45,0.0,4.0,98,0.00,,,0.00,Weather View 32 v70,2013-06-11 17:57:00,
2013-06-11 14:02:00,59.0,58.4,29.30,SE,135,0.0,4.0,98,0.00,,,0.00,Weather View 32 v70,2013-06-11 18:02:00,
2013-06-11 14:07:00,58.0,57.4,29.30,SE,135,1.0,4.0,98,0.00,,,0.00,Weather View 32 v70,2013-06-11 18:07:00,
2013-06-11 14:12:00,59.0,58.4,29.29,SE,135,1.0,3.0,98,0.00,,,0.00,Weather View 32 v70,2013-06-11 18:12:00,
2013-06-11 14:17:00,58.0,57.4,29.29,East,90,1.0,3.0,98,0.00,,,0.00,Weather View 32 v70,2013-06-11 18:17:00,
2013-06-11 14:22:00,59.0,58.4,29.29,SE,135,2.0,4.0,98,0.00,,,0.00,Weather View 32 v70,2013-06-11 18:22:00,
2013-06-11 14:27:00,59.0,58.4,29.29,ENE,67,0.0,4.0,98,0.00,,,0.00,Weather View 32 v70,2013-06-11 18:27:00,
2013-06-11 14:32:00,59.0,58.4,29.29,South,180,0.0,4.0,98,0.00,,,0.00,Weather View 32 v70,2013-06-11 18:32:00,
2013-06-11 14:37:00,59.0,58.4,29.29,WSW,247,0.0,4.0,98,0.00,,,0.00,Weather View 32 v70,2013-06-11 18:37:00,
2013-06-11 14:42:00,59.0,58.4,29.29,NE,45,1.0,5.0,98,0.00,,,0.00,Weather View 32 v70,2013-06-11 18:42:00,
2013-06-11 14:47:00,59.0,58.4,29.29,SW,225,0.0,5.0,98,0.00,,,0.00,Weather View 32 v70,2013-06-11 18:47:00,
2013-06-11 14:52:00,59.0,58.4,29.29,SSW,202,0.0,5.0,98,0.00,,,0.00,Weather View 32 v70,2013-06-11 18:52:00,
2013-06-11 14:57:00,59.0,58.4,29.29,South,180,0.0,5.0,98,0.00,,,0.00,Weather View 32 v70,2013-06-11 18:57:00,
2013-06-11 15:02:00,59.0,58.1,29.29,East,90,0.0,5.0,97,0.00,,,0.00,Weather View 32 v70,2013-06-11 19:02:00,
2013-06-11 15:07:00,59.0,58.4,29.29,East,90,0.0,5.0,98,0.00,,,0.00,Weather View 32 v70,2013-06-11 19:07:00,
2013-06-11 15:12:00,59.0,58.4,29.28,East,90,0.0,5.0,98,0.00,,,0.00,Weather View 32 v70,2013-06-11 19:12:00,
2013-06-11 15:17:00,59.0,58.4,29.28,East,90,0.0,5.0,98,0.00,,,0.00,Weather View 32 v70,2013-06-11 19:17:00,
2013-06-11 15:22:00,60.0,59.1,29.27,NW,315,0.0,5.0,97,0.00,,,0.00,Weather View 32 v70,2013-06-11 19:22:00,
2013-06-11 15:27:00,59.0,57.9,29.27,West,270,0.0,5.0,96,0.00,,,0.00,Weather View 32 v70,2013-06-11 19:27:00,
2013-06-11 15:32:00,59.0,58.1,29.28,South,180,0.0,5.0,97,0.00,,,0.00,Weather View 32 v70,2013-06-11 19:32:00,
2013-06-11 15:37:00,59.0,58.1,29.28,South,180,0.0,5.0,97,0.00,,,0.00,Weather View 32 v70,2013-06-11 19:37:00,
2013-06-11 15:42:00,59.0,57.9,29.27,North,360,0.0,4.0,96,0.00,,,0.00,Weather View 32 v70,2013-06-11 19:42:00,
2013-06-11 15:47:00,59.0,58.1,29.27,NE,45,0.0,4.0,97,0.00,,,0.00,Weather View 32 v70,2013-06-11 19:47:00,
2013-06-11 15:52:00,59.0,57.9,29.27,ENE,67,0.0,4.0,96,0.00,,,0.00,Weather View 32 v70,2013-06-11 19:52:00,
2013-06-11 15:57:00,59.0,57.9,29.27,ENE,67,0.0,4.0,96,0.00,,,0.00,Weather View 32 v70,2013-06-11 19:57:00,
2013-06-11 16:02:00,59.0,58.1,29.27,ENE,67,0.0,4.0,97,0.00,,,0.00,Weather View 32 v70,2013-06-11 20:02:00,
2013-06-11 16:07:00,59.0,57.9,29.27,NE,45,0.0,4.0,96,0.00,,,0.00,Weather View 32 v70,2013-06-11 20:07:00,
2013-06-11 16:12:00,59.0,58.1,29.27,NE,45,0.0,4.0,97,0.00,,,0.00,Weather View 32 v70,2013-06-11 20:12:00,
2013-06-11 16:17:00,59.0,58.1,29.27,NE,45,0.0,4.0,97,0.00,,,0.00,Weather View 32 v70,2013-06-11 20:17:00,
2013-06-11 16:22:00,59.0,57.9,29.26,NE,45,1.0,4.0,96,0.00,,,0.00,Weather View 32 v70,2013-06-11 20:22:00,
2013-06-11 16:27:00,59.0,58.4,29.26,ENE,67,0.0,4.0,98,0.00,,,0.00,Weather View 32 v70,2013-06-11 20:27:00,
2013-06-11 16:32:00,59.0,58.1,29.25,NE,45,0.0,4.0,97,0.00,,,0.00,Weather View 32 v70,2013-06-11 20:32:00,
2013-06-11 16:37:00,59.0,58.1,29.25,North,360,0.0,4.0,97,0.00,,,0.00,Weather View 32 v70,2013-06-11 20:37:00,
2013-06-11 16:42:00,59.0,58.1,29.25,North,360,0.0,4.0,97,0.00,,,0.00,Weather View 32 v70,2013-06-11 20:42:00,
2013-06-11 16:47:00,59.0,57.3,29.25,South,180,0.0,4.0,94,0.00,,,0.00,Weather View 32 v70,2013-06-11 20:47:00,
2013-06-11 16:52:00,59.0,57.9,29.25,SW,225,0.0,4.0,96,0.00,,,0.00,Weather View 32 v70,2013-06-11 20:52:00,
2013-06-11 16:57:00,59.0,58.1,29.25,WNW,292,0.0,4.0,97,0.00,,,0.00,Weather View 32 v70,2013-06-11 20:57:00,
2013-06-11 17:02:00,59.0,57.6,29.24,NE,45,0.0,4.0,95,0.00,,,0.00,Weather View 32 v70,2013-06-11 21:02:00,
2013-06-11 17:07:00,59.0,58.4,29.24,NE,45,0.0,4.0,98,0.00,,,0.00,Weather View 32 v70,2013-06-11 21:07:00,
2013-06-11 17:12:00,59.0,57.9,29.24,NE,45,0.0,4.0,96,0.00,,,0.00,Weather View 32 v70,2013-06-11 21:12:00,
2013-06-11 17:17:00,59.0,58.1,29.24,North,360,0.0,4.0,97,0.00,,,0.00,Weather View 32 v70,2013-06-11 21:17:00,
2013-06-11 17:23:00,59.0,57.6,29.23,South,180,0.0,4.0,95,0.00,,,0.00,Weather View 32 v70,2013-06-11 21:23:00,
2013-06-11 17:28:00,59.0,57.9,29.23,South,180,0.0,3.0,96,0.00,,,0.00,Weather View 32 v70,2013-06-11 21:28:00,
2013-06-11 17:33:00,59.0,57.6,29.23,South,180,0.0,3.0,95,0.00,,,0.00,Weather View 32 v70,2013-06-11 21:33:00,
2013-06-11 17:38:00,58.0,56.6,29.23,SSW,202,0.0,3.0,95,0.00,,,0.00,Weather View 32 v70,2013-06-11 21:38:00,
2013-06-11 17:43:00,58.0,56.9,29.23,SSW,202,0.0,3.0,96,0.00,,,0.00,Weather View 32 v70,2013-06-11 21:43:00,
2013-06-11 17:48:00,58.0,57.2,29.23,SSW,202,0.0,3.0,97,0.00,,,0.00,Weather View 32 v70,2013-06-11 21:48:00,
2013-06-11 17:53:00,58.0,57.4,29.23,NW,315,0.0,3.0,98,0.00,,,0.00,Weather View 32 v70,2013-06-11 21:53:00,
2013-06-11 17:58:00,58.0,57.4,29.23,NW,315,0.0,3.0,98,0.00,,,0.00,Weather View 32 v70,2013-06-11 21:58:00,
2013-06-11 18:03:00,58.0,57.4,29.21,North,360,0.0,3.0,98,0.00,,,0.00,Weather View 32 v70,2013-06-11 22:03:00,
2013-06-11 18:08:00,57.0,56.4,29.21,North,360,0.0,3.0,98,0.00,,,0.00,Weather View 32 v70,2013-06-11 22:08:00,
2013-06-11 18:13:00,57.0,56.4,29.21,North,360,0.0,3.0,98,0.00,,,0.00,Weather View 32 v70,2013-06-11 22:13:00,
2013-06-11 18:18:00,57.0,56.4,29.21,North,360,0.0,3.0,98,0.00,,,0.00,Weather View 32 v70,2013-06-11 22:18:00,
2013-06-11 18:23:00,57.0,56.4,29.21,North,360,0.0,3.0,98,0.00,,,0.00,Weather View 32 v70,2013-06-11 22:23:00,
2013-06-11 18:28:00,57.0,56.4,29.21,North,360,0.0,3.0,98,0.00,,,0.00,Weather View 32 v70,2013-06-11 22:28:00,
2013-06-11 18:33:00,57.0,56.4,29.22,North,360,0.0,3.0,98,0.00,,,0.00,Weather View 32 v70,2013-06-11 22:33:00,
2013-06-11 18:38:00,57.0,56.4,29.22,North,360,0.0,3.0,98,0.00,,,0.00,Weather View 32 v70,2013-06-11 22:38:00,
2013-06-11 18:43:00,57.0,56.4,29.21,North,360,0.0,3.0,98,0.00,,,0.00,Weather View 32 v70,2013-06-11 22:43:00,
2013-06-11 18:48:00,56.0,55.2,29.21,North,360,0.0,3.0,97,0.00,,,0.00,Weather View 32 v70,2013-06-11 22:48:00,
2013-06-11 18:53:00,56.0,55.2,29.22,North,360,0.0,3.0,97,0.00,,,0.00,Weather View 32 v70,2013-06-11 22:53:00,
2013-06-11 18:58:00,56.0,55.2,29.22,NE,45,0.0,3.0,97,0.00,,,0.00,Weather View 32 v70,2013-06-11 22:58:00,
2013-06-11 19:03:00,56.0,55.2,29.23,NE,45,0.0,3.0,97,0.00,,,0.00,Weather View 32 v70,2013-06-11 23:03:00,
2013-06-11 19:08:00,56.0,55.2,29.23,NE,45,0.0,3.0,97,0.00,,,0.00,Weather View 32 v70,2013-06-11 23:08:00,
2013-06-11 19:13:00,56.0,55.2,29.22,NE,45,0.0,3.0,97,0.00,,,0.00,Weather View 32 v70,2013-06-11 23:13:00,
2013-06-11 19:18:00,56.0,55.2,29.22,North,360,0.0,3.0,97,0.00,,,0.00,Weather View 32 v70,2013-06-11 23:18:00,
2013-06-11 19:23:00,56.0,55.2,29.21,East,90,0.0,3.0,97,0.00,,,0.00,Weather View 32 v70,2013-06-11 23:23:00,
2013-06-11 19:28:00,56.0,55.2,29.21,East,90,0.0,3.0,97,0.00,,,0.00,Weather View 32 v70,2013-06-11 23:28:00,
2013-06-11 19:33:00,56.0,55.2,29.21,East,90,0.0,3.0,97,0.00,,,0.00,Weather View 32 v70,2013-06-11 23:33:00,
2013-06-11 19:38:00,55.0,54.2,29.21,North,360,0.0,3.0,97,0.00,,,0.00,Weather View 32 v70,2013-06-11 23:38:00,
2013-06-11 19:43:00,56.0,55.2,29.22,NE,45,0.0,3.0,97,0.00,,,0.00,Weather View 32 v70,2013-06-11 23:43:00,
2013-06-11 19:48:00,55.0,54.2,29.22,NE,45,0.0,3.0,97,0.00,,,0.00,Weather View 32 v70,2013-06-11 23:48:00,
2013-06-11 19:53:00,56.0,55.2,29.21,NE,45,0.0,3.0,97,0.00,,,0.00,Weather View 32 v70,2013-06-11 23:53:00,
2013-06-11 19:58:00,55.0,54.2,29.21,NE,45,0.0,2.0,97,0.00,,,0.00,Weather View 32 v70,2013-06-11 23:58:00,
2013-06-11 20:03:00,56.0,55.2,29.22,NE,45,0.0,2.0,97,0.00,,,0.00,Weather View 32 v70,2013-06-12 00:03:00,
2013-06-11 20:08:00,55.0,54.2,29.22,NE,45,0.0,2.0,97,0.00,,,0.00,Weather View 32 v70,2013-06-12 00:08:00,
2013-06-11 20:13:00,56.0,55.2,29.21,NE,45,0.0,2.0,97,0.00,,,0.00,Weather View 32 v70,2013-06-12 00:13:00,
2013-06-11 20:18:00,55.0,54.2,29.21,NE,45,0.0,1.0,97,0.00,,,0.00,Weather View 32 v70,2013-06-12 00:18:00,
2013-06-11 20:23:00,55.0,54.2,29.22,NE,45,0.0,1.0,97,0.00,,,0.00,Weather View 32 v70,2013-06-12 00:23:00,
2013-06-11 20:28:00,55.0,54.2,29.22,NE,45,0.0,1.0,97,0.00,,,0.00,Weather View 32 v70,2013-06-12 00:28:00,
2013-06-11 20:33:00,55.0,54.2,29.22,NE,45,0.0,1.0,97,0.00,,,0.00,Weather View 32 v70,2013-06-12 00:33:00,
2013-06-11 20:38:00,55.0,54.2,29.22,NE,45,0.0,1.0,97,0.00,,,0.00,Weather View 32 v70,2013-06-12 00:38:00,
2013-06-11 20:43:00,55.0,54.2,29.21,NE,45,0.0,1.0,97,0.00,,,0.00,Weather View 32 v70,2013-06-12 00:43:00,
2013-06-11 20:48:00,55.0,54.2,29.21,NE,45,0.0,0.0,97,0.00,,,0.00,Weather View 32 v70,2013-06-12 00:48:00,
2013-06-11 20:53:00,55.0,54.2,29.21,NE,45,0.0,0.0,97,0.00,,,0.00,Weather View 32 v70,2013-06-12 00:53:00,
2013-06-11 20:58:00,55.0,54.2,29.21,NE,45,0.0,0.0,97,0.00,,,0.00,Weather View 32 v70,2013-06-12 00:58:00,
2013-06-11 21:03:00,56.0,55.2,29.22,NE,45,0.0,0.0,97,0.00,,,0.00,Weather View 32 v70,2013-06-12 01:03:00,
2013-06-11 21:08:00,55.0,54.2,29.22,NE,45,0.0,0.0,97,0.00,,,0.00,Weather View 32 v70,2013-06-12 01:08:00,
2013-06-11 21:13:00,56.0,55.2,29.22,NE,45,0.0,0.0,97,0.00,,,0.00,Weather View 32 v70,2013-06-12 01:13:00,
2013-06-11 21:18:00,55.0,54.2,29.22,NE,45,0.0,0.0,97,0.00,,,0.00,Weather View 32 v70,2013-06-12 01:18:00,
2013-06-11 21:23:00,56.0,55.2,29.21,NE,45,0.0,0.0,97,0.00,,,0.00,Weather View 32 v70,2013-06-12 01:23:00,
2013-06-11 21:28:00,55.0,54.2,29.21,NE,45,0.0,0.0,97,0.00,,,0.00,Weather View 32 v70,2013-06-12 01:28:00,
2013-06-11 21:33:00,56.0,55.2,29.22,NE,45,0.0,0.0,97,0.00,,,0.00,Weather View 32 v70,2013-06-12 01:33:00,
2013-06-11 21:38:00,55.0,54.2,29.22,NE,45,0.0,0.0,97,0.00,,,0.00,Weather View 32 v70,2013-06-12 01:38:00,
2013-06-11 21:43:00,55.0,54.2,29.22,NE,45,0.0,0.0,97,0.00,,,0.00,Weather View 32 v70,2013-06-12 01:43:00,
2013-06-11 21:48:00,55.0,54.2,29.22,NE,45,0.0,0.0,97,0.00,,,0.00,Weather View 32 v70,2013-06-12 01:48:00,
2013-06-11 21:53:00,55.0,54.2,29.22,NE,45,0.0,0.0,97,0.00,,,0.00,Weather View 32 v70,2013-06-12 01:53:00,
2013-06-11 21:58:00,55.0,54.2,29.23,NE,45,0.0,0.0,97,0.00,,,0.00,Weather View 32 v70,2013-06-12 01:58:00,
2013-06-11 22:03:00,56.0,55.2,29.22,NE,45,0.0,0.0,97,0.00,,,0.00,Weather View 32 v70,2013-06-12 02:03:00,
2013-06-11 22:08:00,55.0,54.2,29.22,NE,45,0.0,0.0,97,0.00,,,0.00,Weather View 32 v70,2013-06-12 02:08:00,
2013-06-11 22:13:00,56.0,55.2,29.22,NE,45,0.0,0.0,97,0.00,,,0.00,Weather View 32 v70,2013-06-12 02:13:00,
2013-06-11 22:18:00,55.0,54.2,29.22,NE,45,0.0,0.0,97,0.00,,,0.00,Weather View 32 v70,2013-06-12 02:18:00,
2013-06-11 22:23:00,55.0,54.2,29.22,NE,45,0.0,0.0,97,0.00,,,0.00,Weather View 32 v70,2013-06-12 02:23:00,
2013-06-11 22:28:00,55.0,54.2,29.22,NE,45,0.0,0.0,97,0.00,,,0.00,Weather View 32 v70,2013-06-12 02:28:00,
2013-06-11 22:33:00,55.0,54.2,29.22,NE,45,0.0,0.0,97,0.00,,,0.00,Weather View 32 v70,2013-06-12 02:33:00,
2013-06-11 22:38:00,55.0,54.2,29.22,NE,45,0.0,0.0,97,0.00,,,0.00,Weather View 32 v70,2013-06-12 02:38:00,
2013-06-11 22:43:00,55.0,54.2,29.21,NE,45,0.0,0.0,97,0.00,,,0.00,Weather View 32 v70,2013-06-12 02:43:00,
2013-06-11 22:48:00,55.0,54.2,29.21,NE,45,0.0,0.0,97,0.00,,,0.00,Weather View 32 v70,2013-06-12 02:48:00,
2013-06-11 22:53:00,55.0,54.2,29.21,NE,45,0.0,0.0,97,0.00,,,0.00,Weather View 32 v70,2013-06-12 02:53:00,
2013-06-11 22:58:00,55.0,54.2,29.21,NE,45,0.0,0.0,97,0.00,,,0.00,Weather View 32 v70,2013-06-12 02:58:00,
2013-06-11 23:03:00,55.0,54.2,29.21,NE,45,0.0,0.0,97,0.00,,,0.00,Weather View 32 v70,2013-06-12 03:03:00,
2013-06-11 23:08:00,55.0,54.2,29.21,NE,45,0.0,0.0,97,0.00,,,0.00,Weather View 32 v70,2013-06-12 03:08:00,
2013-06-11 23:13:00,55.0,54.2,29.21,NE,45,0.0,0.0,97,0.00,,,0.00,Weather View 32 v70,2013-06-12 03:13:00,
2013-06-11 23:18:00,55.0,54.2,29.21,NE,45,0.0,0.0,97,0.00,,,0.00,Weather View 32 v70,2013-06-12 03:18:00,
2013-06-11 23:23:00,55.0,54.2,29.21,NE,45,0.0,0.0,97,0.00,,,0.00,Weather View 32 v70,2013-06-12 03:23:00,
2013-06-11 23:28:00,55.0,54.2,29.21,NE,45,0.0,0.0,97,0.00,,,0.00,Weather View 32 v70,2013-06-12 03:28:00,
2013-06-11 23:33:00,55.0,54.2,29.21,NE,45,0.0,0.0,97,0.00,,,0.00,Weather View 32 v70,2013-06-12 03:33:00,
2013-06-11 23:38:00,55.0,54.2,29.21,NE,45,0.0,0.0,97,0.00,,,0.00,Weather View 32 v70,2013-06-12 03:38:00,
2013-06-11 23:43:00,55.0,54.2,29.21,NE,45,0.0,0.0,97,0.00,,,0.00,Weather View 32 v70,2013-06-12 03:43:00,
2013-06-11 23:48:00,55.0,54.2,29.21,NE,45,0.0,0.0,97,0.00,,,0.00,Weather View 32 v70,2013-06-12 03:48:00,
2013-06-11 23:53:00,55.0,54.2,29.21,NE,45,0.0,0.0,97,0.00,,,0.00,Weather View 32 v70,2013-06-12 03:53:00,
2013-06-11 23:58:00,55.0,54.2,29.21,NE,45,0.0,0.0,97,0.00,,,0.00,Weather View 32 v70,2013-06-12 03:58:00,